Weather reports worldwide

Advertisment
Sheffield, United Kingdom (99107): temperature & dewpoint: 12.08.2017 00:00:00 - 18.08.2017 00:00:00 (BST)Sheffield, United Kingdom (99107): visibility: 12.08.2017 00:00:00 - 18.08.2017 00:00:00 (BST)Sheffield, United Kingdom (99107): sunshine duration: 12.08.2017 00:00:00 - 18.08.2017 00:00:00 (BST)Sheffield, United Kingdom (99107): precipitation: 12.08.2017 00:00:00 - 18.08.2017 00:00:00 (BST)
Date & Time tt [°C] td [°C] vv [km] sd [min] rr [mm]
18.08.2017 00:00:00 - - - - -
17.08.2017 23:00:00 16,3 12,8 - 0 0,0
17.08.2017 22:00:00 16,7 13,0 - 0 0,0
17.08.2017 21:00:00 17,0 13,0 - 0 0,0
17.08.2017 20:00:00 18,0 12,7 - 30 0,0
17.08.2017 19:00:00 20,3 10,4 - 42 0,0
17.08.2017 18:00:00 21,0 10,5 - 54 0,0
17.08.2017 17:00:00 22,6 11,1 - 60 0,0
17.08.2017 16:00:00 22,6 12,6 - 54 0,0
17.08.2017 15:00:00 22,9 13,5 - 48 0,0
17.08.2017 14:00:00 22,9 13,1 - 60 0,0
17.08.2017 13:00:00 21,7 14,2 - 60 0,0
17.08.2017 12:00:00 20,7 15,1 - 60 0,0
17.08.2017 11:00:00 19,8 15,6 - 36 0,0
17.08.2017 10:00:00 17,2 15,9 10 0 0,0
17.08.2017 09:00:00 16,6 15,7 - 0 0,0
17.08.2017 08:00:00 15,5 14,9 - 0 0,0
17.08.2017 07:00:00 14,7 14,2 - 0 0,0
17.08.2017 06:00:00 14,1 13,6 - 0 0,4
17.08.2017 05:00:00 13,9 13,4 - 0 1,6
17.08.2017 04:00:00 13,8 13,1 - 0 1,2
17.08.2017 03:00:00 13,8 12,8 - 0 0,6
17.08.2017 02:00:00 13,7 12,7 - 0 2,6
17.08.2017 01:00:00 14,5 11,9 - - 1,0
17.08.2017 00:00:00 16,8 10,0 - 0 0,0
16.08.2017 23:00:00 17,1 10,8 - 0 0,0
16.08.2017 22:00:00 17,5 11,5 - 0 0,0
16.08.2017 21:00:00 17,9 12,1 - 0 0,0
16.08.2017 20:00:00 19,1 11,3 - 12 0,0
16.08.2017 19:00:00 19,5 11,0 - 0 0,0
16.08.2017 18:00:00 19,9 10,3 - 6 0,0
16.08.2017 17:00:00 20,1 10,2 - 6 0,0
16.08.2017 16:00:00 21,3 9,9 - 42 0,0
16.08.2017 15:00:00 20,7 9,5 - 36 0,0
16.08.2017 14:00:00 20,1 10,2 - 42 0,0
16.08.2017 13:00:00 19,8 12,3 - 36 0,0
16.08.2017 12:00:00 18,4 10,6 - 24 0,0
16.08.2017 11:00:00 16,8 10,4 - 54 0,0
16.08.2017 10:00:00 15,6 11,4 - 6 0,0
16.08.2017 09:00:00 14,1 11,4 - 6 0,0
16.08.2017 08:00:00 12,3 10,1 - 18 0,0
16.08.2017 07:00:00 11,0 9,3 - 12 0,0
16.08.2017 06:00:00 10,4 9,0 - 0 0,0
16.08.2017 05:00:00 9,8 8,8 - 0 0,0
16.08.2017 04:00:00 10,2 9,1 - 0 0,0
16.08.2017 03:00:00 10,7 9,4 - 0 0,0
16.08.2017 02:00:00 10,8 9,1 - 0 0,0
16.08.2017 01:00:00 11,3 9,2 - - 0,0
16.08.2017 00:00:00 11,8 9,5 - 0 0,0
15.08.2017 23:00:00 13,3 9,5 - 0 0,0
15.08.2017 22:00:00 15,0 10,1 - 0 0,0
15.08.2017 21:00:00 15,5 10,0 - 6 0,0
15.08.2017 20:00:00 17,4 9,8 - 60 0,0
15.08.2017 19:00:00 18,4 9,2 - 54 0,0
15.08.2017 18:00:00 19,3 9,9 - 30 0,0
15.08.2017 17:00:00 19,7 10,0 - 42 0,0
15.08.2017 16:00:00 20,2 9,9 - 30 0,0
15.08.2017 15:00:00 21,0 8,8 - 60 0,0
15.08.2017 14:00:00 20,4 9,8 - 54 0,0
15.08.2017 13:00:00 20,9 10,4 - 60 0,0
15.08.2017 12:00:00 19,6 10,1 - 60 0,0
15.08.2017 11:00:00 18,7 10,8 - 60 0,0
15.08.2017 10:00:00 17,5 11,1 10 60 0,0
15.08.2017 09:00:00 16,7 11,6 - 60 0,0
15.08.2017 08:00:00 15,8 11,8 - 60 0,0
15.08.2017 07:00:00 14,6 12,2 - 24 0,0
15.08.2017 06:00:00 13,9 12,5 - 0 0,0
15.08.2017 05:00:00 13,6 12,3 - 0 0,0
15.08.2017 04:00:00 13,8 12,4 - 0 0,0
15.08.2017 03:00:00 14,0 12,2 - 0 0,0
15.08.2017 02:00:00 14,3 12,3 - 0 0,0
15.08.2017 01:00:00 14,6 13,1 - - 0,0
15.08.2017 00:00:00 15,0 12,5 - 0 0,0
14.08.2017 23:00:00 16,0 13,4 - 0 0,0
14.08.2017 22:00:00 16,4 13,7 10 0 0,0
14.08.2017 21:00:00 16,4 14,2 - 0 0,6
14.08.2017 20:00:00 18,3 13,2 - 0 0,0
14.08.2017 19:00:00 19,1 12,8 - 0 0,0
14.08.2017 18:00:00 19,1 12,8 - 12 0,0
14.08.2017 17:00:00 19,1 12,5 - 18 0,0
14.08.2017 16:00:00 18,6 12,2 - 0 0,0
14.08.2017 15:00:00 18,4 12,3 - 6 0,0
14.08.2017 14:00:00 17,5 12,0 - 0 0,0
14.08.2017 13:00:00 17,2 11,7 - 0 0,0
14.08.2017 12:00:00 15,8 10,7 - 0 0,0
14.08.2017 11:00:00 14,7 10,6 - 0 0,0
14.08.2017 10:00:00 14,2 10,2 - 0 0,0
14.08.2017 09:00:00 14,3 9,6 - 0 0,0
14.08.2017 08:00:00 13,5 9,7 - 0 0,0
14.08.2017 07:00:00 13,1 8,9 - 0 0,0
14.08.2017 06:00:00 13,2 8,5 - 0 0,0
14.08.2017 05:00:00 12,1 8,6 - 0 0,0
14.08.2017 04:00:00 13,6 7,9 - 0 0,0
14.08.2017 03:00:00 13,0 8,8 - 0 0,0
14.08.2017 02:00:00 14,3 8,5 - 0 0,0
14.08.2017 01:00:00 14,8 8,7 - - 0,0
14.08.2017 00:00:00 14,9 9,1 - 0 0,0
13.08.2017 23:00:00 15,7 9,1 - 0 0,0
13.08.2017 22:00:00 16,3 8,5 - 0 0,0
13.08.2017 21:00:00 16,9 8,5 - 0 0,0
13.08.2017 20:00:00 17,8 7,4 - 0 0,0
13.08.2017 19:00:00 18,3 7,4 - 0 0,0
13.08.2017 18:00:00 19,1 7,0 - 48 0,0
13.08.2017 17:00:00 19,6 6,5 - 54 0,0
13.08.2017 16:00:00 18,7 5,4 - 24 0,0
13.08.2017 15:00:00 19,1 6,6 - 42 0,0
13.08.2017 14:00:00 17,5 6,6 - 24 0,0
13.08.2017 13:00:00 17,1 5,7 - 30 0,0
13.08.2017 12:00:00 16,9 6,7 - 54 0,0
13.08.2017 11:00:00 16,7 6,8 - 60 0,0
13.08.2017 10:00:00 15,9 6,5 - 60 0,0
13.08.2017 09:00:00 14,5 8,2 - 60 0,0
13.08.2017 08:00:00 12,8 9,3 - 60 0,0
13.08.2017 07:00:00 10,9 8,6 - 36 0,0
13.08.2017 06:00:00 10,8 8,4 - 0 0,0
13.08.2017 05:00:00 10,7 8,1 - 0 0,0
13.08.2017 04:00:00 11,6 8,5 - 0 0,0
13.08.2017 03:00:00 11,3 8,7 - 0 0,0
13.08.2017 02:00:00 11,9 9,1 - 0 0,0
13.08.2017 01:00:00 12,1 8,9 - - 0,0
13.08.2017 00:00:00 12,6 8,8 - 0 0,0
12.08.2017 23:00:00 13,0 8,5 - 0 0,0
12.08.2017 22:00:00 13,5 8,6 - 0 0,0
12.08.2017 21:00:00 14,4 8,8 - 6 0,0
12.08.2017 20:00:00 15,9 8,9 - 60 0,0
12.08.2017 19:00:00 17,5 9,1 - 60 0,0
12.08.2017 18:00:00 19,1 10,4 - 60 0,0
12.08.2017 17:00:00 19,4 11,1 - 36 0,0
12.08.2017 16:00:00 18,4 12,2 - 24 0,0
12.08.2017 15:00:00 19,0 12,2 - 30 0,0
12.08.2017 14:00:00 18,9 11,9 - 48 0,0
12.08.2017 13:00:00 18,7 12,2 - 36 0,0
12.08.2017 12:00:00 17,8 11,8 - 42 0,0
12.08.2017 11:00:00 15,6 11,5 - 0 0,0
12.08.2017 10:00:00 15,3 10,7 - 48 0,0
12.08.2017 09:00:00 15,6 11,3 - 24 0,0
12.08.2017 08:00:00 14,2 11,5 - 24 0,0
12.08.2017 07:00:00 13,6 11,6 - 0 0,0
12.08.2017 06:00:00 13,7 11,7 - 0 0,0
12.08.2017 05:00:00 15,0 13,0 - 0 0,0
12.08.2017 04:00:00 15,1 12,9 - 0 0,0
12.08.2017 03:00:00 15,7 13,4 - 0 0,0
12.08.2017 02:00:00 16,0 13,9 - 0 0,0
12.08.2017 01:00:00 15,5 14,3 - - 0,0
12.08.2017 00:00:00 16,3 14,8 - 0 0,2

tt = temperature
td = dewpoint
vv = visibility
sd = sunshine duration
rr = precipitation

Next stations